period_start,C,m1,H,J0,J1,J2,J3,J4,J5,JA,JB,JC,JD,JJ,JK,JN,#
2017-11-14 00:00:46,0.10,0.55,0.00,19.32,22.68,25.70,14.31,46.70,1034.20,2047.06,3323.81,2964.71,3379.31,599.64,613.60,16.78,0000 0000 0000 0000 000000
2017-11-14 00:05:47,0.07,0.55,0.00,19.30,22.69,25.68,14.36,46.74,1034.20,2047.06,3321.92,2963.45,3377.95,599.69,613.71,16.83,0000 0000 0000 0000 000000
2017-11-14 00:10:48,0.05,0.56,0.00,19.31,22.69,25.72,14.31,46.73,1034.20,2047.04,3320.58,2962.68,3376.98,599.67,613.51,16.88,0000 0000 0000 0000 000000
2017-11-14 00:15:49,0.04,0.56,0.00,19.32,22.69,25.73,14.30,46.73,1034.18,2047.07,3319.45,2961.98,3376.09,599.62,613.68,16.93,0000 0000 0000 0000 000000
2017-11-14 00:20:50,0.05,0.56,0.00,19.33,22.69,25.70,14.42,46.70,1034.19,2047.06,3318.65,2961.15,3375.59,600.49,614.45,16.98,0000 0000 0000 0000 000000
2017-11-14 00:25:51,0.01,0.56,0.00,19.34,22.69,25.74,14.35,46.80,1034.18,2047.08,3318.00,2960.99,3375.01,599.65,613.57,17.03,0000 0000 0000 0000 000000
2017-11-14 00:30:53,0.04,0.57,0.00,19.35,22.70,25.70,14.39,46.76,1034.15,2047.07,3317.18,2960.24,3374.36,599.79,613.66,17.08,0000 0000 0000 0000 000000
2017-11-14 00:35:54,0.02,0.57,0.00,19.36,22.70,25.71,14.39,46.80,1034.13,2047.11,3316.51,2959.99,3373.97,600.24,614.21,17.13,0000 0000 0000 0000 000000
2017-11-14 00:40:55,0.04,0.57,0.00,19.37,22.71,25.69,14.37,46.75,1034.10,2047.07,3315.67,2959.29,3373.17,600.22,613.97,17.18,0000 0000 0000 0000 000000
2017-11-14 00:45:57,0.05,0.57,0.00,19.39,22.72,25.72,14.39,46.76,1034.17,2047.06,3314.66,2958.66,3372.44,600.27,614.09,17.23,0000 0000 0000 0000 000000
2017-11-14 00:50:58,0.05,0.57,0.00,19.39,22.72,25.73,14.30,46.59,1034.04,2047.07,3313.53,2957.85,3371.64,599.99,613.68,17.28,0000 0000 0000 0000 000000
2017-11-14 00:55:59,0.06,0.58,0.00,19.38,22.72,25.73,14.37,46.67,1033.95,2047.09,3312.20,2956.95,3370.50,600.29,613.99,17.33,0000 0000 0000 0000 000000
2017-11-14 01:01:00,0.08,0.58,0.00,19.38,22.72,25.73,14.38,46.73,1033.80,2047.15,3310.53,2955.92,3369.41,600.41,614.02,17.38,0000 0000 0000 0000 000000
2017-11-14 01:06:02,0.08,0.58,0.00,19.43,22.74,25.73,14.32,46.73,1033.73,2047.15,3308.74,2954.73,3368.10,599.86,613.39,17.43,0000 0000 0000 0000 000000
2017-11-14 01:11:03,0.09,0.59,0.00,19.42,22.74,25.73,14.34,46.71,1033.72,2047.08,3306.55,2953.32,3366.51,600.08,613.51,17.48,0000 0000 0000 0000 000000
2017-11-14 01:16:04,0.10,0.59,0.00,19.40,22.74,25.75,14.31,46.61,1033.72,2047.05,3304.41,2951.84,3364.88,600.11,613.62,17.53,0000 0000 0000 0000 000000
2017-11-14 01:21:06,0.11,0.60,0.00,19.42,22.74,25.76,14.30,46.73,1033.71,2047.05,3301.79,2950.21,3363.02,599.93,613.40,17.58,0000 0000 0000 0000 000000
2017-11-14 01:26:07,0.11,0.61,0.00,19.45,22.75,25.78,14.32,46.71,1033.71,2047.05,3299.28,2948.61,3361.24,599.74,613.15,17.63,0000 0000 0000 0000 000000
2017-11-14 01:31:08,0.08,0.61,0.00,19.43,22.77,25.80,14.30,46.73,1033.71,2047.06,3297.29,2947.37,3359.84,599.89,613.39,17.68,0000 0000 0000 0000 000000
2017-11-14 01:36:10,0.07,0.62,0.00,19.44,22.77,25.75,14.29,46.74,1033.71,2047.06,3295.61,2946.29,3358.54,599.69,613.19,17.73,0000 0000 0000 0000 000000
2017-11-14 01:41:11,0.05,0.62,0.00,19.45,22.77,25.80,14.33,46.79,1033.68,2047.01,3294.49,2945.41,3357.52,600.10,613.50,17.78,0000 0000 0000 0000 000000
2017-11-14 01:46:12,0.05,0.62,0.00,19.44,22.79,25.75,14.30,46.76,1033.65,2047.00,3293.14,2944.53,3356.52,600.02,613.50,17.83,0000 0000 0000 0000 000000
2017-11-14 01:51:13,0.06,0.62,0.00,19.43,22.79,25.77,14.30,46.87,1033.55,2047.00,3291.62,2943.64,3355.45,599.76,613.02,17.89,0000 0000 0000 0000 000000
2017-11-14 01:56:15,0.06,0.63,0.00,19.43,22.80,25.79,14.37,46.81,1033.45,2047.00,3290.12,2942.70,3354.42,599.79,613.03,17.94,0000 0000 0000 0000 000000
2017-11-14 02:01:16,0.06,0.63,0.00,19.47,22.82,25.80,14.29,46.76,1033.27,2047.01,3288.48,2941.77,3353.29,599.80,612.93,17.99,0000 0000 0000 0000 000000
2017-11-14 02:06:17,0.05,0.63,0.00,19.45,22.82,25.84,14.31,46.89,1033.23,2047.01,3287.22,2940.96,3352.37,600.19,613.23,18.04,0000 0000 0000 0000 000000
2017-11-14 02:11:18,0.05,0.64,0.00,19.47,22.82,25.85,14.34,46.80,1033.23,2047.00,3286.09,2940.09,3351.55,600.46,613.57,18.09,0000 0000 0000 0000 000000
2017-11-14 02:16:20,0.05,0.64,0.00,19.48,22.83,25.81,14.34,46.73,1033.22,2047.00,3285.03,2939.52,3350.71,600.40,613.52,18.14,0000 0000 0000 0000 000000
2017-11-14 02:21:21,0.03,0.64,0.00,19.44,22.84,25.84,14.34,46.82,1033.22,2047.00,3284.00,2938.83,3349.88,599.79,612.94,18.19,0000 0000 0000 0000 000000
2017-11-14 02:26:22,0.05,0.64,0.00,19.43,22.84,25.83,14.39,46.88,1033.22,2047.00,3283.05,2938.05,3349.05,600.16,613.24,18.24,0000 0000 0000 0000 000000
2017-11-14 02:31:23,0.05,0.65,0.00,19.48,22.85,25.90,14.39,46.87,1033.22,2047.00,3282.11,2937.52,3348.40,600.31,613.34,18.29,0000 0000 0000 0000 000000
2017-11-14 02:36:24,0.07,0.65,0.00,19.44,22.87,25.89,14.31,46.82,1033.21,2047.00,3280.51,2936.66,3347.51,599.90,613.05,18.34,0000 0000 0000 0000 000000
2017-11-14 02:41:25,0.06,0.65,0.00,19.46,22.87,25.93,14.36,46.82,1033.16,2047.00,3278.48,2935.86,3346.41,600.11,613.12,18.39,0000 0000 0000 0000 000000
2017-11-14 02:46:27,0.02,0.66,0.00,19.49,22.87,25.89,14.34,46.85,1033.06,2047.00,3277.79,2935.09,3345.94,599.98,612.81,18.44,0000 0000 0000 0000 000000
2017-11-14 02:51:28,0.02,0.66,0.00,19.46,22.88,25.87,14.31,46.88,1032.97,2047.00,3277.01,2934.98,3345.17,600.03,612.92,18.49,0000 0000 0000 0000 000000
2017-11-14 02:56:29,0.04,0.66,0.00,19.49,22.89,25.89,14.35,46.85,1032.87,2047.00,3276.19,2934.27,3344.84,600.41,613.17,18.54,0000 0000 0000 0000 000000
2017-11-14 03:01:30,0.03,0.66,0.00,19.53,22.89,25.92,14.36,46.87,1032.77,2047.00,3275.47,2934.00,3344.06,600.31,612.95,18.59,0000 0000 0000 0000 000000
2017-11-14 03:06:32,0.10,0.66,0.00,19.50,22.89,25.87,14.22,46.92,1032.75,2047.00,3274.12,2932.85,3342.74,599.66,612.42,18.64,0000 0000 0000 0000 000000
2017-11-14 03:11:33,0.03,0.67,0.00,19.46,22.90,25.89,14.34,46.96,1032.75,2047.00,3272.94,2932.00,3341.44,600.35,613.11,18.69,0000 0000 0000 0000 000000
2017-11-14 03:16:34,0.05,0.67,0.00,19.49,22.90,25.95,14.32,47.02,1032.78,2047.00,3271.99,2931.34,3340.61,599.89,612.55,18.74,0000 0000 0000 0000 000000
2017-11-14 03:21:35,0.02,0.67,0.00,19.49,22.91,25.91,14.30,46.88,1032.79,2047.00,3271.11,2930.97,3339.97,600.13,612.86,18.79,0000 0000 0000 0000 000000
2017-11-14 03:26:37,0.05,0.67,0.00,19.48,22.92,25.95,14.37,46.94,1032.76,2047.00,3270.25,2930.23,3339.09,600.12,612.88,18.84,0000 0000 0000 0000 000000
2017-11-14 03:31:38,0.03,0.68,0.00,19.52,22.92,25.96,14.27,46.81,1032.76,2047.00,3269.38,2929.97,3338.24,600.14,612.90,18.89,0000 0000 0000 0000 000000
2017-11-14 03:36:39,0.02,0.68,0.00,19.51,22.92,25.95,14.26,46.93,1032.77,2047.00,3268.89,2929.57,3337.97,600.14,612.72,18.94,0000 0000 0000 0000 000000
2017-11-14 03:41:40,0.03,0.68,0.00,19.50,22.92,25.95,14.36,46.96,1032.80,2047.00,3268.07,2929.05,3337.18,600.57,613.25,18.99,0000 0000 0000 0000 000000
2017-11-14 03:46:42,0.01,0.68,0.00,19.54,22.92,25.96,14.38,46.87,1032.82,2047.00,3267.36,2929.00,3336.90,600.39,613.02,19.04,0000 0000 0000 0000 000000
2017-11-14 03:51:43,0.02,0.68,0.00,19.54,22.92,26.04,14.28,46.99,1032.83,2047.00,3266.74,2928.92,3336.07,599.67,612.40,19.09,0000 0000 0000 0000 000000
2017-11-14 03:56:44,0.03,0.68,0.00,19.53,22.92,25.96,14.37,46.93,1032.78,2047.00,3266.02,2928.40,3335.90,600.27,613.04,19.14,0000 0000 0000 0000 000000
2017-11-14 04:01:46,0.03,0.68,0.00,19.55,22.92,25.96,14.33,46.97,1032.77,2047.00,3265.34,2928.04,3335.17,599.98,612.64,19.19,0000 0000 0000 0000 000000
2017-11-14 04:06:47,0.01,0.69,0.00,19.54,22.92,25.95,14.35,46.95,1032.79,2047.00,3264.66,2928.00,3334.94,600.14,612.83,19.24,0000 0000 0000 0000 000000
2017-11-14 04:11:48,0.02,0.69,0.00,19.55,22.93,25.99,14.24,46.86,1032.84,2047.00,3263.96,2927.98,3334.13,599.71,612.40,19.29,0000 0000 0000 0000 000000
2017-11-14 04:16:50,0.04,0.69,0.00,19.55,22.94,25.96,14.31,46.96,1032.97,2047.00,3263.11,2927.42,3333.62,600.03,612.74,19.34,0000 0000 0000 0000 000000
2017-11-14 04:21:51,0.02,0.69,0.00,19.58,22.94,25.97,14.33,46.90,1032.90,2047.00,3262.48,2927.01,3333.01,599.76,612.42,19.39,0000 0000 0000 0000 000000
2017-11-14 04:26:52,0.02,0.69,0.00,19.57,22.94,26.04,14.31,46.97,1032.83,2047.00,3261.58,2926.96,3332.39,599.80,612.47,19.44,0000 0000 0000 0000 000000
2017-11-14 04:31:53,0.03,0.69,0.00,19.56,22.94,25.99,14.23,47.07,1032.79,2047.00,3260.85,2926.31,3331.89,599.59,612.32,19.49,0000 0000 0000 0000 000000
2017-11-14 04:36:54,0.03,0.70,0.00,19.59,22.95,26.00,14.30,46.91,1032.77,2047.00,3260.04,2926.00,3331.08,599.93,612.53,19.54,0000 0000 0000 0000 000000
2017-11-14 04:41:56,0.01,0.70,0.00,19.59,22.95,26.02,14.40,46.98,1032.78,2047.00,3259.62,2925.99,3330.91,600.30,612.79,19.59,0000 0000 0000 0000 000000
2017-11-14 04:46:57,0.02,0.70,0.00,19.61,22.95,25.99,14.39,46.91,1032.76,2047.00,3259.02,2925.78,3330.15,600.21,612.69,19.64,0000 0000 0000 0000 000000
2017-11-14 04:51:59,0.03,0.70,0.00,19.63,22.96,25.99,14.21,47.12,1032.75,2047.00,3258.36,2925.11,3329.95,599.60,611.98,19.69,0000 0000 0000 0000 000000
2017-11-14 04:57:00,0.01,0.70,0.00,19.64,22.97,26.02,14.26,46.81,1032.75,2047.00,3257.95,2925.00,3329.18,599.88,612.34,19.74,0000 0000 0000 0000 000000
2017-11-14 05:02:01,0.01,0.70,0.00,19.62,22.97,26.00,14.31,46.97,1032.76,2047.00,3257.15,2924.99,3329.00,600.19,612.68,19.79,0000 0000 0000 0000 000000
2017-11-14 05:07:03,0.04,0.70,0.00,19.62,22.97,25.99,14.27,47.02,1032.73,2047.00,3256.74,2924.49,3328.38,600.19,612.69,19.84,0000 0000 0000 0000 000000
2017-11-14 05:12:04,0.01,0.70,0.00,19.64,22.97,26.01,14.31,47.13,1032.74,2047.00,3256.01,2924.02,3327.97,599.88,612.42,19.89,0000 0000 0000 0000 000000
2017-11-14 05:17:05,0.02,0.70,0.00,19.64,22.97,26.06,14.30,47.05,1032.74,2046.99,3255.51,2923.99,3327.24,599.49,611.92,19.94,0000 0000 0000 0000 000000
2017-11-14 05:22:06,0.01,0.71,0.00,19.64,22.97,25.99,14.30,47.06,1032.73,2046.99,3255.00,2923.83,3327.00,600.30,612.71,19.99,0000 0000 0000 0000 000000
2017-11-14 05:27:07,0.03,0.71,0.00,19.64,22.98,26.02,14.27,46.92,1032.73,2046.99,3254.56,2923.32,3326.91,600.08,612.53,20.04,0000 0000 0000 0000 000000
2017-11-14 05:32:08,0.02,0.71,0.00,19.65,22.99,26.03,14.33,47.00,1032.73,2046.99,3254.02,2923.03,3326.27,599.91,612.32,20.09,0000 0000 0000 0000 000000
2017-11-14 05:37:09,0.00,0.71,0.00,19.64,22.99,26.02,14.32,46.92,1032.73,2046.98,3253.98,2923.00,3326.01,600.20,612.67,20.14,0000 0000 0000 0000 000000
2017-11-14 05:42:10,0.01,0.71,0.00,19.64,22.99,26.02,14.42,46.88,1032.74,2046.98,3253.47,2923.00,3326.00,600.14,612.58,20.19,0000 0000 0000 0000 000000
2017-11-14 05:47:11,0.01,0.71,0.00,19.66,22.99,26.06,14.33,46.79,1032.73,2046.98,3253.02,2922.99,3325.87,600.16,612.56,20.24,0000 0000 0000 0000 000000
2017-11-14 05:52:13,0.01,0.71,0.00,19.67,22.99,26.05,14.30,46.88,1032.79,2046.99,3252.94,2922.97,3325.26,599.90,612.33,20.29,0000 0000 0000 0000 000000
2017-11-14 05:57:14,0.04,0.71,0.00,19.64,22.99,26.06,14.40,46.92,1032.84,2046.99,3252.18,2922.44,3325.00,600.38,612.69,20.34,0000 0000 0000 0000 000000
2017-11-14 06:02:15,0.01,0.71,0.00,19.65,22.99,26.09,14.28,46.83,1032.92,2046.98,3252.00,2922.06,3325.00,600.13,612.59,20.39,0000 0000 0000 0000 000000
2017-11-14 06:07:16,0.00,0.71,0.00,19.67,23.00,26.10,14.37,46.92,1032.85,2046.98,3251.90,2922.02,3324.95,600.14,612.66,20.44,0000 0000 0000 0000 000000
2017-11-14 06:12:18,0.05,0.71,0.00,19.69,23.00,26.09,14.27,47.05,1032.88,2046.99,3250.97,2921.71,3324.06,599.83,612.22,20.49,0000 0000 0000 0000 000000
2017-11-14 06:17:19,0.05,0.72,0.00,19.67,23.01,26.08,14.28,46.95,1032.90,2046.99,3250.01,2920.88,3322.89,599.84,612.32,20.54,0000 0000 0000 0000 000000
2017-11-14 06:22:20,0.08,0.72,0.00,19.68,23.02,26.07,14.31,47.10,1033.00,2046.99,3248.94,2919.73,3321.55,600.29,612.78,20.59,0000 0000 0000 0000 000000
2017-11-14 06:27:21,0.04,0.72,0.00,19.69,23.02,26.14,14.37,46.96,1033.03,2046.98,3247.95,2919.01,3320.28,600.17,612.60,20.64,0000 0000 0000 0000 000000
2017-11-14 06:32:22,0.03,0.72,0.00,19.69,23.02,26.10,14.30,46.96,1033.12,2046.96,3247.15,2918.60,3319.98,600.01,612.63,20.69,0000 0000 0000 0000 000000
2017-11-14 06:37:23,0.02,0.73,0.00,19.67,23.02,26.11,14.34,47.10,1033.09,2046.97,3246.92,2918.03,3319.34,600.11,612.73,20.74,0000 0000 0000 0000 000000
2017-11-14 06:42:25,0.01,0.73,0.00,19.70,23.02,26.15,14.32,46.97,1033.21,2046.92,3246.16,2918.00,3318.99,600.08,612.71,20.79,0000 0000 0000 0000 000000
2017-11-14 06:47:26,-0.00,0.73,0.00,19.66,23.02,26.13,14.35,47.02,1033.22,2046.80,3246.00,2917.98,3318.79,600.10,612.75,20.84,0000 0000 0000 0000 000000
2017-11-14 06:52:27,0.01,0.73,0.00,19.68,23.02,26.13,14.26,47.09,1033.22,2046.70,3245.63,2917.80,3318.18,600.02,612.72,20.89,0000 0000 0000 0000 000000
2017-11-14 06:57:28,0.02,0.73,0.00,19.69,23.02,26.12,14.34,47.13,1033.22,2046.61,3245.00,2917.10,3317.98,600.08,612.67,20.94,0000 0000 0000 0000 000000
2017-11-14 07:02:29,0.03,0.73,0.00,19.65,23.02,26.15,14.30,47.13,1033.23,2046.73,3244.68,2917.00,3317.54,599.85,612.30,20.99,0000 0000 0000 0000 000000
2017-11-14 07:07:30,-0.00,0.73,0.00,19.66,23.02,26.10,14.37,47.17,1033.23,2046.57,3244.05,2916.93,3317.03,600.07,612.72,21.04,0000 0000 0000 0000 000000
2017-11-14 07:12:31,0.03,0.73,0.00,19.66,23.02,26.17,14.32,47.07,1033.24,2046.63,3243.91,2916.62,3316.96,600.40,613.04,21.09,0000 0000 0000 0000 000000
2017-11-14 07:17:33,0.02,0.73,0.00,19.62,23.02,26.13,14.36,47.09,1033.22,2046.37,3243.12,2916.10,3316.50,600.09,612.77,21.14,0000 0000 0000 0000 000000
2017-11-14 07:22:34,0.09,0.73,0.00,19.65,23.02,26.23,14.37,47.08,1033.22,2046.62,3242.29,2915.56,3315.61,600.20,612.70,21.19,0000 0000 0000 0000 000000
2017-11-14 07:27:35,0.04,0.74,0.00,19.63,23.02,26.15,14.27,47.08,1033.23,2046.82,3241.21,2914.98,3314.70,599.99,612.73,21.24,0000 0000 0000 0000 000000
2017-11-14 07:32:37,0.03,0.74,0.00,19.63,23.02,26.23,14.27,47.09,1033.24,2046.87,3240.76,2914.23,3314.01,599.73,612.59,21.29,0000 0000 0000 0000 000000
2017-11-14 07:37:37,0.03,0.74,0.00,19.66,23.02,26.28,14.33,47.26,1033.30,2046.90,3240.00,2913.99,3313.26,599.97,612.66,21.34,0000 0000 0000 0000 000000
2017-11-14 07:42:39,0.04,0.75,0.00,19.61,23.02,26.19,14.30,47.10,1033.33,2046.94,3239.15,2913.26,3312.92,600.05,612.90,21.39,0000 0000 0000 0000 000000
2017-11-14 07:47:40,0.01,0.75,0.00,19.63,23.02,26.19,14.33,47.01,1033.33,2046.93,3238.84,2913.00,3312.11,600.21,613.02,21.44,0000 0000 0000 0000 000000
2017-11-14 07:52:41,0.01,0.75,0.00,19.64,23.02,26.23,14.38,47.20,1033.30,2046.96,3238.08,2912.97,3312.00,600.17,612.81,21.49,0000 0000 0000 0000 000000
2017-11-14 07:57:42,0.01,0.75,0.00,19.61,23.02,26.14,14.27,47.10,1033.41,2046.81,3237.98,2912.67,3311.53,599.97,612.86,21.55,0000 0000 0000 0000 000000
2017-11-14 08:02:43,0.01,0.75,0.00,19.61,23.02,26.17,14.33,47.05,1033.45,2046.57,3237.48,2912.11,3311.02,600.00,612.91,21.60,0000 0000 0000 0000 000000
2017-11-14 08:07:45,0.03,0.75,0.00,19.62,23.02,26.16,14.33,47.27,1033.29,2046.70,3237.01,2912.02,3311.00,600.12,612.73,21.65,0000 0000 0000 0000 000000
2017-11-14 08:12:46,0.01,0.75,0.00,19.62,23.02,26.21,14.31,47.27,1033.27,2046.80,3236.78,2912.00,3310.87,599.93,612.79,21.70,0000 0000 0000 0000 000000
2017-11-14 08:17:47,0.03,0.75,0.00,19.63,23.02,26.16,14.29,47.13,1033.29,2046.83,3236.08,2912.00,3310.19,599.91,612.57,21.75,0000 0000 0000 0000 000000
2017-11-14 08:22:49,0.01,0.75,0.00,19.64,23.01,26.18,14.34,47.21,1033.35,2046.90,3235.95,2911.98,3310.01,600.34,613.19,21.80,0000 0000 0000 0000 000000
2017-11-14 08:27:50,0.02,0.75,0.00,19.57,23.01,26.16,14.35,47.11,1033.59,2046.94,3235.24,2911.81,3309.91,600.07,613.17,21.85,0000 0000 0000 0000 000000
2017-11-14 08:32:51,0.04,0.75,0.00,19.59,23.00,26.18,14.36,47.21,1033.67,2046.95,3234.62,2911.06,3309.11,600.04,613.14,21.90,0000 0000 0000 0000 000000
2017-11-14 08:37:53,0.02,0.76,0.00,19.60,23.00,26.16,14.26,47.26,1033.70,2046.94,3234.02,2910.96,3308.68,599.96,613.03,21.95,0000 0000 0000 0000 000000
2017-11-14 08:42:54,0.01,0.76,0.00,19.53,23.00,26.23,14.38,47.11,1033.71,2046.83,3233.72,2910.59,3308.03,600.14,613.32,22.00,0000 0000 0000 0000 000000
2017-11-14 08:47:55,0.01,0.76,0.00,19.57,22.99,26.23,14.26,47.10,1033.71,2046.76,3233.06,2910.08,3307.99,599.78,612.88,22.05,0000 0000 0000 0000 000000
2017-11-14 08:52:57,0.01,0.76,0.00,19.53,22.99,26.24,14.27,47.01,1033.71,2046.78,3233.00,2910.04,3307.99,599.73,613.09,22.10,0000 0000 0000 0000 000000
2017-11-14 08:57:58,0.01,0.76,0.00,19.53,22.99,26.27,14.38,47.12,1033.71,2046.92,3232.88,2910.01,3307.93,600.11,613.38,22.15,0000 0000 0000 0000 000000
2017-11-14 09:02:59,0.02,0.76,0.00,19.54,22.99,26.29,14.37,47.09,1033.71,2046.93,3232.12,2910.01,3307.48,600.09,613.34,22.20,0000 0000 0000 0000 000000
2017-11-14 09:08:00,0.00,0.76,0.00,19.51,22.99,26.16,14.44,46.98,1033.71,2046.97,3232.00,2910.00,3307.08,600.31,613.58,22.25,0000 0000 0000 0000 000000
2017-11-14 09:13:01,0.01,0.76,0.00,19.53,22.97,26.22,14.36,46.95,1033.71,2046.96,3231.74,2910.00,3307.00,600.12,613.39,22.30,0000 0000 0000 0000 000000
2017-11-14 09:18:03,0.00,0.76,0.00,19.54,22.97,26.25,14.25,47.00,1033.70,2046.97,3231.12,2910.00,3307.00,599.66,613.03,22.35,0000 0000 0000 0000 000000
2017-11-14 09:23:04,0.00,0.76,0.00,19.53,22.97,26.24,14.32,47.01,1033.70,2046.98,3230.99,2909.98,3306.96,599.90,613.06,22.40,0000 0000 0000 0000 000000
2017-11-14 09:28:05,0.02,0.76,0.00,19.54,22.97,26.20,14.37,46.96,1033.69,2046.98,3230.63,2909.93,3306.46,600.09,613.23,22.45,0000 0000 0000 0000 000000
2017-11-14 09:33:06,0.01,0.76,0.00,19.54,22.97,26.21,14.40,47.09,1033.69,2046.97,3230.05,2909.77,3306.05,599.89,612.98,22.50,0000 0000 0000 0000 000000
2017-11-14 09:38:08,0.01,0.76,0.00,19.53,22.96,26.14,14.41,47.09,1033.67,2046.98,3229.99,2909.28,3306.01,600.00,613.18,22.55,0000 0000 0000 0000 000000
2017-11-14 09:43:09,0.01,0.76,0.00,19.53,22.95,26.14,14.35,46.99,1033.61,2046.99,3229.68,2909.04,3305.99,600.08,613.29,22.60,0000 0000 0000 0000 000000
2017-11-14 09:48:11,0.01,0.77,0.00,19.56,22.95,26.09,14.33,46.98,1033.45,2046.99,3229.11,2909.02,3305.95,600.11,613.18,22.65,0000 0000 0000 0000 000000
2017-11-14 09:53:12,0.01,0.77,0.00,19.55,22.95,26.15,14.29,47.03,1033.39,2046.99,3229.00,2909.00,3305.59,600.01,612.98,22.70,0000 0000 0000 0000 000000
2017-11-14 09:58:13,0.01,0.77,0.00,19.51,22.94,26.10,14.33,47.02,1033.35,2046.99,3228.72,2909.00,3305.04,600.03,613.11,22.75,0000 0000 0000 0000 000000
2017-11-14 10:03:14,0.00,0.77,0.00,19.52,22.94,26.09,14.35,46.92,1033.31,2046.99,3228.09,2909.00,3305.01,600.14,613.10,22.80,0000 0000 0000 0000 000000
2017-11-14 10:08:16,0.00,0.77,0.00,19.52,22.94,26.15,14.32,47.03,1033.28,2046.99,3228.00,2908.98,3305.00,600.14,613.00,22.85,0000 0000 0000 0000 000000
2017-11-14 10:13:17,0.02,0.77,0.00,19.51,22.94,26.13,14.31,46.91,1033.25,2046.99,3227.44,2908.86,3304.65,600.14,613.14,22.90,0000 0000 0000 0000 000000
2017-11-14 10:18:18,0.02,0.77,0.00,19.52,22.94,26.10,14.30,46.98,1033.27,2046.99,3227.02,2908.39,3304.07,600.08,613.08,22.95,0000 0000 0000 0000 000000
2017-11-14 10:23:19,0.00,0.77,0.00,19.55,22.94,26.07,14.37,46.91,1033.25,2046.99,3226.99,2908.15,3304.00,599.91,612.85,23.00,0000 0000 0000 0000 000000
2017-11-14 10:28:20,0.01,0.77,0.00,19.54,22.94,26.12,14.37,46.87,1033.24,2046.99,3226.37,2908.04,3303.98,600.06,612.89,23.05,0000 0000 0000 0000 000000
2017-11-14 10:33:22,0.00,0.77,0.00,19.55,22.94,26.04,14.30,46.86,1033.24,2046.99,3226.00,2908.01,3303.96,599.92,612.84,23.10,0000 0000 0000 0000 000000
2017-11-14 10:38:23,0.01,0.77,0.00,19.56,22.94,26.07,14.31,46.94,1033.24,2046.99,3225.94,2908.00,3303.53,600.08,612.91,23.15,0000 0000 0000 0000 000000
2017-11-14 10:43:24,0.01,0.77,0.00,19.55,22.94,26.09,14.39,46.76,1033.23,2046.99,3225.36,2908.00,3303.06,600.34,613.34,23.20,0000 0000 0000 0000 000000
2017-11-14 10:48:26,0.00,0.77,0.00,19.53,22.94,26.09,14.41,46.83,1033.22,2046.99,3225.01,2907.98,3303.00,600.28,613.33,23.25,0000 0000 0000 0000 000000
2017-11-14 10:53:27,0.00,0.77,0.00,19.56,22.94,26.09,14.29,46.93,1033.22,2046.99,3224.91,2907.96,3302.99,599.88,612.97,23.30,0000 0000 0000 0000 000000
2017-11-14 10:58:28,0.04,0.77,0.00,19.58,22.94,26.11,14.37,46.91,1033.23,2046.99,3224.19,2907.54,3302.57,599.94,612.89,23.35,0000 0000 0000 0000 000000
2017-11-14 11:03:29,0.01,0.78,0.00,19.55,22.94,26.09,14.34,46.92,1033.23,2046.99,3224.00,2907.15,3302.09,599.94,612.83,23.40,0000 0000 0000 0000 000000
2017-11-14 11:08:31,0.00,0.78,0.00,19.53,22.94,26.07,14.39,46.99,1033.22,2046.99,3223.93,2907.04,3302.00,600.14,613.13,23.45,0000 0000 0000 0000 000000
2017-11-14 11:13:32,0.01,0.78,0.00,19.56,22.94,26.13,14.32,47.07,1033.22,2046.99,3223.28,2907.01,3301.98,599.82,612.70,23.50,0000 0000 0000 0000 000000
2017-11-14 11:18:33,0.00,0.78,0.00,19.57,22.94,26.09,14.47,47.18,1033.22,2046.99,3223.00,2906.99,3301.64,600.26,613.04,23.55,0000 0000 0000 0000 000000
2017-11-14 11:23:34,0.00,0.78,0.00,19.54,22.94,26.04,14.26,47.28,1033.22,2046.99,3222.84,2906.99,3301.13,599.72,612.77,23.60,0000 0000 0000 0000 000000
2017-11-14 11:28:35,0.01,0.78,0.00,19.58,22.94,26.13,14.23,47.17,1033.22,2046.99,3222.13,2906.96,3301.01,599.77,612.63,23.65,0000 0000 0000 0000 000000
2017-11-14 11:33:36,0.00,0.78,0.00,19.55,22.95,26.10,14.32,47.14,1033.23,2046.99,3222.00,2906.82,3300.98,600.19,613.05,23.70,0000 0000 0000 0000 000000
2017-11-14 11:38:37,0.01,0.78,0.00,19.54,22.95,26.12,14.37,47.15,1033.24,2046.99,3221.89,2906.37,3300.96,599.83,612.83,23.75,0000 0000 0000 0000 000000
2017-11-14 11:43:38,0.03,0.78,0.00,19.58,22.95,26.14,14.41,47.17,1033.23,2046.99,3221.09,2906.05,3300.43,600.45,613.25,23.80,0000 0000 0000 0000 000000
2017-11-14 11:48:40,0.01,0.78,0.00,19.60,22.95,26.12,14.41,47.07,1033.25,2046.99,3220.44,2906.00,3300.01,600.20,613.02,23.85,0000 0000 0000 0000 000000
2017-11-14 11:53:41,0.00,0.78,0.00,19.58,22.96,26.08,14.42,47.04,1033.27,2046.99,3220.00,2905.99,3300.00,600.01,612.85,23.90,0000 0000 0000 0000 000000
2017-11-14 11:58:42,0.02,0.78,0.00,19.60,22.96,26.10,14.30,46.99,1033.27,2046.99,3219.42,2905.96,3299.74,599.77,612.53,23.95,0000 0000 0000 0000 000000
2017-11-14 12:03:43,0.03,0.78,0.00,19.61,22.97,26.20,14.33,46.90,1033.28,2046.99,3218.94,2905.52,3299.08,600.02,612.95,24.00,0000 0000 0000 0000 000000
2017-11-14 12:08:45,0.02,0.79,0.00,19.59,22.97,26.15,14.38,46.94,1033.23,2046.99,3218.17,2905.05,3299.00,600.36,613.17,24.05,0000 0000 0000 0000 000000
2017-11-14 12:13:46,0.00,0.79,0.00,19.60,22.97,26.09,14.37,46.98,1033.24,2046.99,3217.96,2905.00,3298.97,599.97,612.69,24.10,0000 0000 0000 0000 000000
2017-11-14 12:18:47,0.02,0.79,0.00,19.59,22.97,26.09,14.21,46.96,1033.23,2046.99,3217.17,2905.00,3298.54,599.91,612.69,24.15,0000 0000 0000 0000 000000
2017-11-14 12:23:49,0.00,0.79,0.00,19.59,22.97,26.16,14.34,47.01,1033.23,2046.99,3216.97,2904.99,3298.02,599.91,612.76,24.20,0000 0000 0000 0000 000000
2017-11-14 12:28:50,0.01,0.79,0.00,19.55,22.98,26.11,14.19,46.92,1033.24,2046.98,3216.26,2904.88,3297.98,599.72,612.70,24.25,0000 0000 0000 0000 000000
2017-11-14 12:33:51,0.01,0.79,0.00,19.59,22.99,26.18,14.33,47.08,1033.23,2046.98,3215.99,2904.52,3297.90,600.02,612.87,24.30,0000 0000 0000 0000 000000
2017-11-14 12:38:53,0.03,0.79,0.00,19.61,22.99,26.19,14.32,47.00,1033.23,2046.98,3215.69,2904.23,3297.39,600.02,612.75,24.35,0000 0000 0000 0000 000000
2017-11-14 12:43:54,0.01,0.79,0.00,19.59,22.99,26.17,14.33,46.91,1033.23,2046.98,3215.08,2904.05,3297.03,599.95,612.74,24.40,0000 0000 0000 0000 000000
2017-11-14 12:48:55,0.00,0.79,0.00,19.61,22.99,26.21,14.36,46.99,1033.22,2046.99,3214.99,2904.00,3297.00,600.11,612.94,24.45,0000 0000 0000 0000 000000
2017-11-14 12:53:56,0.01,0.79,0.00,19.62,22.99,26.16,14.33,46.97,1033.22,2046.97,3214.58,2904.00,3296.98,600.33,613.29,24.50,0000 0000 0000 0000 000000